Virgil, KS (66870)

2:56 AM CDT on March 29, 2017 (GMT -0500)
Greenwood Heights | | Change Station

Elev 1207 ft 38.13 °N, 96.14 °W | Updated 6 seconds ago

Rain
Rain
51.4 °F
Feels Like 51.4 °F
N
9.2
Wind Variable Wind from NE
Gusts 9.8 mph

Today
High -- | Low -- °F
--% Chance of Precip.
Yesterday
High -- | Low -- °F
Precip. -- in
Pressure 29.85 in
Visibility 3.0 miles
Clouds Mostly Cloudy 700 ft
Overcast 1200 ft
Dew Point 51 °F
Humidity 99%
Rainfall 1.52 in
Snow Depth Not available.
7:13 AM 7:44 PM
New Moon, 2% visible
METAR KEMP 290753Z AUTO 04014KT 3SM RA BR BKN007 OVC012 10/10 A2984 RMK AO2 LTG DSNT NE-S TSB13E28 SLP107 P0039 T01000100
Pressure 29.85 in
Visibility 3.0 miles
Clouds Mostly Cloudy 700 ft
Overcast 1200 ft
Dew Point 51 °F
Humidity 99%
Rainfall 1.52 in
Snow Depth Not available.
7:13 AM 7:44 PM
New Moon, 2% visible
METAR KEMP 290753Z AUTO 04014KT 3SM RA BR BKN007 OVC012 10/10 A2984 RMK AO2 LTG DSNT NE-S TSB13E28 SLP107 P0039 T01000100

Get Severe Weather Alerts

Thanks for signing up!

Be on the lookout for a verification email in your inbox.

You'll start receiving the daily forecast at 8 AM.

×

10-Day Weather Forecast

Almanac

Astronomy

Mar. 29, 2017 Rise Set
Actual Time
Civil Twilight
Nautical Twilight
Astronomical Twilight
Moon
Length of Visible Light
Length of Day
Tomorrow will be .
, % of the Moon is Illuminated

Today's Extremes

State Highs State Lows

Community

WunderPhotos

Upload Photos

1,962,540 photos uploaded!

WunderBlog® & News

Nearby

Air Quality

  Air Quality AQ Index Pollutant
Not available.

Snow Depth

Station Depth Elevation

Earthquake Activity

City Distance Mag. Time & Date
Minimum magnitude displayed is 2.5.

Earthquake Activity

City Distance Mag. Time & Date
Minimum magnitude displayed is 2.5.

Coastal Water Temperatures

Place Temperature

Stations

Nearby Weather Stations

Station Location Temp. Windchill Dew Point Humidity Wind Precip. Elev Updated Type
                   

Watches & Warnings

There are currently no watches in effect.